Theta_e
352 351 351 351 350 352 354 354 351 351 351 339 338 341 338 344 349 347 349 348 347 347 347 349 348 349 349 351 352 352 351 354 352 346 344 343 344 343 344 346 345 345 346 347 347 348 348 347 344 344 345 346 345 344 344 344 346 346 346 346 345 345 344 345 346 345 345 344 343 342 343 342 342 341 341 341 341 341 340 339 339 339 339 339 338 338 339 338 337 336 335 335 334 334 335 335 335
353 352 351 350 350 352 354 354 351 354 350 336 337 340 337 345 350 347 349 348 349 349 349 350 350 350 350 349 350 353 354 352 349 347 347 345 343 342 344 346 345 345 345 345 347 347 348 349 346 345 345 344 343 343 343 344 346 347 347 347 346 345 345 346 345 344 344 343 342 342 342 341 342 341 342 342 342 341 340 339 338 339 339 338 336 337 337 337 337 336 337 336 336 336 336 336 336
353 352 351 351 351 351 356 356 345 349 346 335 336 339 342 347 349 346 347 348 350 350 351 350 350 350 349 353 352 354 354 351 348 346 347 346 344 343 343 346 345 345 345 345 346 346 347 348 347 347 346 345 343 342 343 344 345 346 347 347 346 345 345 345 345 344 343 343 342 342 342 342 342 342 342 342 342 341 340 339 339 339 338 337 337 337 337 338 338 338 337 337 336 336 336 336 336
353 353 351 351 353 353 363 369 357 351 341 337 338 338 345 347 347 347 347 348 349 349 348 347 349 349 350 356 353 353 353 350 347 344 346 345 343 342 343 345 345 345 346 345 345 346 346 346 346 346 347 346 345 344 344 345 346 346 346 346 345 345 345 345 344 344 343 342 342 342 342 342 342 343 343 342 342 341 340 340 339 338 338 338 337 337 338 338 338 338 337 337 336 337 336 336 336
355 355 353 352 358 357 363 364 360 353 337 340 341 338 346 344 346 347 346 346 344 345 344 346 350 349 349 353 351 353 353 349 345 342 343 344 342 341 343 343 344 345 345 344 345 345 345 345 345 345 346 345 345 345 345 345 345 345 345 345 345 344 344 344 344 343 342 342 342 342 342 342 342 342 342 342 341 341 341 340 338 338 338 337 337 336 336 337 337 337 337 337 336 336 336 337 337
355 356 355 355 358 357 361 349 346 354 345 346 341 338 345 342 345 345 343 344 343 344 343 346 349 349 350 350 351 351 350 347 344 342 343 344 342 341 342 342 343 345 344 344 344 344 344 344 345 345 345 345 344 344 345 345 344 345 344 344 344 344 344 343 343 342 342 342 342 342 342 342 342 341 341 341 341 340 340 339 338 338 337 336 336 336 336 337 336 337 337 337 336 335 335 336 337
352 354 355 357 355 353 365 352 347 360 347 342 340 340 344 342 344 342 344 346 346 345 344 345 344 349 351 350 352 352 350 345 342 341 343 343 341 340 341 341 342 345 345 344 344 345 344 344 345 345 345 344 344 344 344 344 344 344 344 344 344 344 344 343 342 342 342 341 341 341 342 341 341 341 340 340 339 338 338 338 338 337 336 335 335 336 336 336 336 337 336 336 336 336 336 336 337
351 353 352 356 357 349 360 351 346 355 338 334 339 340 342 342 342 343 346 346 347 345 345 346 344 351 353 349 354 354 350 343 341 342 342 340 340 340 341 340 341 345 345 343 343 344 344 343 344 344 344 344 344 344 344 344 344 344 344 344 344 343 343 342 342 342 341 341 341 340 341 340 340 339 339 338 337 337 337 337 337 336 335 334 335 335 335 336 335 336 335 335 335 337 337 337 338
350 353 353 354 352 348 352 342 335 340 334 335 339 340 341 342 342 344 347 346 345 345 346 347 345 354 354 353 355 354 348 343 343 342 340 339 339 339 340 340 340 344 344 343 344 344 343 343 343 344 344 344 344 344 344 344 345 344 344 344 343 343 343 342 342 341 341 340 340 340 340 339 339 339 338 338 337 337 336 336 336 335 334 335 335 335 335 335 335 335 335 335 335 338 338 339 339
350 352 351 350 350 347 342 337 337 335 331 336 339 341 341 342 343 343 348 348 346 347 348 347 347 353 355 355 356 354 348 343 342 342 339 338 338 338 339 339 339 343 343 343 344 344 343 344 343 344 344 344 344 344 344 344 343 344 343 344 343 343 342 342 342 342 341 340 339 339 339 339 339 339 338 336 336 336 335 336 336 336 336 336 335 336 336 335 335 335 336 336 336 338 338 339 339
350 347 345 348 348 341 333 337 344 338 334 337 339 340 342 342 344 345 347 350 348 349 349 348 352 354 355 356 356 355 349 343 341 340 339 337 338 337 338 339 339 342 342 342 344 343 344 344 344 344 344 343 344 344 344 344 343 343 343 343 343 343 342 342 342 342 341 340 339 339 338 338 338 338 336 335 335 334 335 336 337 337 336 336 335 335 335 335 335 335 335 336 337 338 337 339 339
351 346 351 353 340 336 335 337 337 336 338 339 340 339 342 342 345 347 347 351 350 350 348 348 353 353 356 357 355 355 350 345 341 338 337 338 337 337 338 337 339 342 341 342 344 344 344 344 344 344 344 343 343 344 343 343 344 343 343 343 343 342 341 341 341 341 341 341 340 340 338 337 337 337 337 336 336 336 336 336 337 337 336 335 335 335 335 335 335 335 335 336 338 338 338 339 340
350 346 353 349 339 341 338 334 334 339 340 338 339 338 341 342 345 348 348 351 350 351 350 348 349 352 356 357 356 354 351 347 344 340 338 337 337 336 337 335 337 341 341 341 342 342 343 343 343 343 343 343 343 343 343 343 343 343 342 342 342 341 341 341 341 342 341 341 341 341 339 339 339 339 339 338 337 337 337 336 336 336 336 336 336 336 336 336 336 337 337 337 338 339 339 339 340
347 341 345 343 342 345 335 334 337 340 341 339 339 338 342 343 345 347 348 351 348 348 350 348 347 351 357 357 357 354 351 349 348 346 342 338 337 336 336 334 334 338 339 340 340 341 341 342 342 342 342 342 343 343 343 343 343 342 342 342 341 341 341 341 341 341 340 340 341 341 341 340 340 341 340 339 338 338 337 336 336 336 336 336 336 336 336 337 338 338 338 338 338 340 341 341 341
344 337 346 351 345 339 332 337 339 341 343 341 340 340 343 343 346 347 347 350 349 349 349 348 347 350 358 358 357 355 351 350 348 349 345 340 337 336 337 335 333 335 337 339 339 339 340 341 341 341 342 342 342 342 342 342 343 342 342 342 342 342 341 341 341 341 341 340 340 340 340 341 341 341 341 340 340 339 339 338 337 336 337 337 337 337 338 338 339 340 338 338 339 340 341 341 341
341 334 347 350 337 333 333 336 339 344 344 342 342 342 344 345 345 346 344 347 350 351 348 349 348 347 353 353 354 353 352 350 349 350 347 341 337 337 338 337 336 335 337 339 340 339 340 341 341 341 342 341 342 342 342 342 342 342 342 342 342 341 341 341 341 341 341 340 341 340 341 341 342 341 341 341 341 341 340 339 337 338 338 338 339 340 340 340 339 340 339 339 339 340 341 340 341
338 340 350 340 330 333 336 338 341 344 343 342 343 342 347 347 344 345 344 346 349 349 347 348 347 347 350 349 350 353 352 350 350 350 348 343 338 337 339 339 339 338 340 341 341 342 341 341 341 342 342 342 343 343 343 343 343 343 342 342 342 342 341 341 341 341 340 340 341 341 340 340 340 340 341 341 341 340 340 339 338 337 338 340 341 342 342 341 340 340 339 339 339 340 340 340 341
339 347 348 331 329 332 332 337 339 344 345 344 344 342 346 348 345 345 346 347 346 348 350 350 349 349 351 350 350 351 352 350 351 350 348 346 339 338 339 339 340 341 342 342 344 344 342 342 342 342 343 342 343 344 344 344 343 343 343 342 343 342 342 342 341 341 340 340 340 340 340 339 339 339 340 340 340 340 339 339 338 338 339 341 342 343 343 342 341 340 340 340 339 339 340 341 341
339 346 341 330 332 328 326 335 336 343 346 343 345 343 345 347 346 346 348 348 348 353 353 352 354 354 354 354 352 352 352 351 352 350 349 347 341 338 339 339 339 340 342 343 345 345 343 343 344 343 344 344 344 344 344 344 344 343 343 343 343 342 342 342 342 341 341 340 340 340 341 340 339 339 339 339 339 339 338 339 339 340 340 342 343 343 343 343 342 341 340 339 339 339 340 341 340
333 337 335 328 331 328 330 337 339 343 343 342 343 343 345 346 344 346 348 346 348 355 354 353 355 356 356 355 353 352 352 352 352 350 349 348 342 339 340 339 339 339 341 343 345 347 346 345 345 345 344 344 344 343 343 343 342 343 343 342 342 341 341 342 342 342 341 341 340 340 340 340 340 340 340 339 339 338 338 338 339 341 341 341 343 343 343 343 343 342 341 340 338 338 339 340 340
330 333 334 324 326 333 336 338 341 343 343 343 342 344 344 344 346 346 346 349 350 350 351 353 355 356 356 355 353 352 353 353 352 350 351 349 344 342 342 342 341 339 340 343 344 346 346 346 346 345 344 345 343 340 341 341 340 341 343 343 343 342 340 341 342 341 340 340 339 339 339 339 339 338 338 338 338 337 337 337 337 338 340 340 340 342 344 344 343 342 341 340 337 337 339 340 341
328 326 326 323 328 336 338 338 341 341 342 342 342 344 345 344 347 345 346 353 354 347 348 350 352 353 354 355 354 353 353 352 352 350 351 352 348 346 345 344 343 341 341 343 343 344 345 345 346 345 344 344 341 338 340 341 339 342 344 345 344 342 341 340 340 339 339 339 339 339 338 337 337 337 336 335 335 336 336 336 336 336 336 337 337 339 343 343 342 341 340 337 334 334 336 339 342
327 322 321 326 333 338 338 340 342 342 342 342 343 344 345 346 347 347 346 350 349 345 348 350 351 351 351 354 355 354 352 351 350 351 351 351 350 347 346 345 341 340 341 342 342 343 343 344 344 344 343 342 340 338 340 342 342 343 345 345 345 342 338 336 337 337 337 338 338 338 337 336 336 336 335 335 334 335 335 336 336 336 335 335 336 338 340 341 341 341 338 335 333 332 333 337 341
326 325 323 329 337 338 340 343 342 342 344 344 345 346 347 350 352 350 348 347 347 346 349 351 352 352 352 353 353 353 351 350 350 351 350 349 349 348 347 345 340 338 341 342 341 341 342 342 342 341 339 339 339 338 338 341 343 345 345 345 344 340 336 334 334 335 336 336 337 337 337 336 336 336 335 335 335 334 335 335 335 336 335 335 337 338 338 339 339 338 336 334 333 334 334 334 337
326 326 328 334 339 340 343 343 343 345 347 347 348 350 349 351 351 348 348 348 348 348 351 352 353 353 353 352 353 353 351 351 352 351 352 349 349 349 348 347 343 339 340 341 340 341 341 341 341 339 338 337 337 337 335 337 341 343 344 344 343 338 335 335 335 336 337 337 338 337 336 336 336 336 336 336 336 336 335 335 335 334 334 335 337 337 337 337 336 335 334 334 334 335 335 334 334
324 324 330 337 339 341 344 344 346 348 348 348 352 353 352 349 348 348 349 349 349 350 353 352 353 353 354 353 352 353 352 352 352 352 353 351 351 350 349 348 346 343 342 342 341 340 341 342 341 340 338 338 336 336 334 333 334 337 341 341 339 336 335 336 336 336 337 338 337 337 336 336 336 335 336 336 337 337 337 336 336 335 334 335 336 337 337 337 336 335 335 335 335 335 335 335 335
323 328 333 337 339 342 345 346 347 349 350 350 354 357 353 347 351 353 349 349 350 352 353 352 353 353 354 354 353 354 353 352 353 353 353 352 352 351 349 348 346 347 346 345 343 340 340 341 341 340 340 339 338 336 334 334 332 333 336 336 335 334 335 335 335 335 336 337 336 337 338 337 337 336 336 336 337 337 337 337 336 336 335 335 335 336 338 338 338 338 337 336 336 336 336 336 337
327 335 335 335 340 344 345 347 347 349 352 348 350 356 352 350 357 355 349 350 351 351 353 352 352 353 353 355 355 354 353 352 353 352 353 351 351 350 349 347 346 347 348 347 345 341 338 337 338 339 339 339 339 338 336 335 334 332 332 332 333 334 335 336 336 337 338 338 337 338 339 338 338 337 336 337 338 339 338 338 337 335 335 334 334 335 337 339 340 340 339 337 336 337 337 337 337
332 337 335 336 342 345 345 347 346 351 353 347 345 352 358 360 358 352 348 350 351 351 352 352 352 352 352 354 354 354 353 352 352 351 349 349 349 348 348 347 346 347 349 348 345 340 338 338 337 338 338 339 338 337 336 335 334 332 331 332 333 335 339 340 341 342 343 342 340 340 340 340 339 338 338 337 339 339 339 339 338 336 334 332 332 332 334 337 338 338 338 337 336 337 338 338 338
332 333 333 339 343 345 344 344 346 351 349 345 345 350 359 364 354 349 349 349 350 350 350 350 351 351 351 353 353 353 353 351 351 349 348 348 348 349 348 348 348 348 349 348 343 340 339 338 338 337 337 338 336 336 336 335 334 333 333 334 334 338 341 342 344 345 346 346 345 344 343 342 341 339 339 339 339 339 338 339 339 337 334 332 331 331 330 332 334 336 337 336 336 336 337 338 339
330 328 330 338 342 344 341 339 347 353 348 345 351 355 359 363 352 349 350 348 349 349 349 349 349 350 351 352 352 352 352 350 349 348 348 348 348 348 349 348 348 349 350 349 344 342 343 340 337 336 335 335 335 335 335 335 335 335 335 335 335 337 339 342 344 346 347 348 349 348 347 346 345 344 343 342 341 340 340 339 340 339 337 334 331 330 329 329 331 334 336 337 336 336 336 338 338
333 328 325 328 338 342 335 335 345 352 349 345 353 360 359 359 352 352 351 349 350 349 349 349 348 349 349 350 351 351 351 350 350 349 348 348 349 349 349 349 349 350 350 350 346 344 345 342 338 338 337 338 337 336 336 336 337 337 337 337 337 338 340 343 345 346 346 347 348 347 348 348 348 348 347 345 343 342 341 340 340 340 340 338 335 332 330 328 329 332 334 336 338 336 336 338 339
337 333 328 324 333 337 332 336 343 345 347 346 352 360 360 357 352 352 352 350 350 350 350 349 349 349 349 350 350 350 350 350 350 348 348 348 348 349 349 350 350 350 350 350 347 345 344 341 338 338 337 339 340 340 340 341 341 342 342 343 343 344 346 347 347 347 346 345 347 346 346 346 346 347 347 347 346 345 344 343 342 341 341 341 339 336 333 329 328 328 330 334 338 339 338 339 339
329 331 331 327 332 333 331 340 341 338 347 352 356 360 360 356 353 353 353 352 350 352 352 351 350 349 349 350 349 350 350 349 349 348 349 349 349 349 350 350 350 351 350 349 349 347 345 344 341 340 339 340 342 344 345 346 346 347 347 348 348 349 349 349 350 350 349 347 346 347 347 344 341 342 343 344 344 345 345 345 345 345 343 341 340 339 336 334 331 329 329 332 337 339 340 340 340
326 328 328 324 327 331 334 343 342 341 351 356 355 357 358 355 354 354 354 354 352 353 353 352 351 350 350 350 350 350 349 349 349 349 349 350 350 350 350 351 351 350 350 350 349 349 348 348 346 346 345 344 345 347 348 349 350 350 351 351 350 351 350 350 351 351 349 347 344 344 345 342 341 341 343 344 345 345 345 346 346 346 346 344 341 339 338 338 336 334 332 332 335 338 340 340 341
330 332 331 326 327 330 337 343 340 343 352 353 353 356 357 357 356 355 355 354 353 353 353 353 352 352 351 351 351 350 350 350 350 350 350 350 351 352 351 352 351 350 350 350 350 350 350 349 350 349 349 349 349 349 350 352 352 353 353 353 352 349 346 346 346 346 346 344 344 344 343 342 342 342 345 347 348 347 347 346 346 346 347 347 344 340 339 338 338 337 336 334 334 336 338 339 339
328 330 330 328 328 331 337 343 340 342 352 351 350 355 355 356 357 355 355 354 353 353 352 353 353 353 353 352 352 351 351 351 350 351 351 351 352 352 353 352 351 351 350 350 351 351 350 350 349 350 351 351 352 352 352 352 351 353 354 354 350 344 343 346 344 345 346 345 346 346 346 344 343 342 343 346 346 347 348 348 347 345 343 345 344 342 340 339 338 339 339 337 337 336 336 337 338
326 328 326 325 329 333 338 343 339 340 353 351 349 356 354 354 357 354 354 353 352 352 351 352 352 352 353 353 352 352 352 351 351 352 352 353 354 353 353 352 352 351 351 351 351 350 349 347 346 348 349 350 351 351 350 349 348 349 351 351 347 342 342 344 343 342 342 342 342 342 343 343 343 342 342 342 344 346 348 349 349 348 346 345 345 345 344 342 340 340 341 340 339 338 337 336 336
328 329 328 327 331 336 337 339 340 342 355 353 349 355 353 352 354 352 352 353 352 351 351 351 352 352 352 352 352 352 351 352 352 352 353 354 354 353 352 351 351 351 351 350 349 348 347 346 346 347 348 348 349 347 346 345 344 344 344 344 343 340 338 338 338 337 336 335 334 334 335 335 336 338 339 341 343 345 346 345 345 347 349 350 347 345 345 344 341 340 340 341 340 340 340 339 337
328 330 330 328 332 338 336 335 340 344 351 351 350 353 352 351 351 350 349 350 351 352 351 351 350 350 350 351 351 351 350 351 351 351 350 350 350 350 349 349 350 349 349 349 348 348 349 349 350 351 350 349 346 345 343 341 339 339 340 341 342 341 340 338 337 336 335 334 332 331 330 329 329 330 332 336 339 341 343 343 342 342 347 349 346 343 343 344 343 341 341 341 341 342 342 341 339
326 330 331 330 333 338 337 336 342 346 344 346 350 351 352 354 351 351 351 349 351 351 350 351 349 349 349 349 349 350 350 349 350 349 349 348 347 347 348 348 349 348 347 348 346 346 346 345 345 346 346 346 343 341 339 337 337 337 337 338 340 341 340 339 338 335 334 335 333 332 331 330 330 330 331 333 335 338 339 341 342 340 344 347 345 343 341 339 340 342 342 343 343 343 342 342 340
324 326 332 333 337 340 340 342 349 351 344 345 348 344 349 357 353 354 354 354 354 351 349 350 349 349 349 349 349 348 349 349 348 348 347 348 348 348 348 347 347 347 344 341 337 333 333 332 331 332 333 334 334 334 334 334 334 335 335 336 336 336 335 334 334 334 333 334 333 332 332 332 334 334 333 334 334 336 338 339 340 339 341 346 347 345 344 341 339 340 341 343 343 343 344 344 342
323 324 330 332 338 342 341 344 348 349 346 345 346 345 348 352 349 352 356 358 358 352 349 349 348 349 347 347 348 347 348 347 347 347 348 348 348 346 343 340 341 340 334 329 328 326 326 325 324 324 324 325 326 326 327 328 329 329 330 330 330 330 330 330 331 332 332 332 332 332 332 333 335 336 336 336 335 335 337 339 341 341 341 344 345 346 346 344 342 341 340 341 341 341 345 345 342
323 323 329 336 341 341 340 342 344 345 344 340 344 350 350 349 349 352 357 359 357 354 352 349 348 348 348 347 347 346 346 346 347 348 347 346 342 338 332 329 330 329 326 327 328 328 328 326 323 322 322 322 323 323 323 323 323 324 325 326 327 327 329 329 329 330 331 332 332 333 333 332 334 335 337 337 334 333 335 337 339 341 342 344 345 345 345 344 343 344 343 341 340 341 344 344 341
325 323 330 336 338 338 339 339 341 343 341 338 340 341 342 350 354 352 355 358 356 356 354 350 349 348 348 348 347 347 345 346 349 346 340 336 332 329 327 325 326 326 329 331 332 331 330 328 326 324 324 324 324 324 323 323 322 323 324 324 325 325 326 326 326 327 328 330 330 332 333 332 332 334 336 336 333 331 331 333 336 339 340 343 344 343 343 345 345 344 342 341 341 343 344 342 341
324 323 329 331 331 337 339 335 337 336 334 338 341 335 333 345 353 350 352 356 355 354 353 349 348 348 349 348 347 349 348 348 349 340 331 328 329 330 330 328 329 330 333 334 334 333 330 328 326 324 324 323 323 323 323 323 323 323 323 323 323 323 324 325 325 327 328 329 330 332 333 334 334 335 336 336 333 331 330 332 334 336 338 340 341 340 340 343 344 342 341 340 341 343 342 342 341
321 327 331 329 333 343 347 347 341 328 328 338 339 336 333 337 348 350 351 355 354 352 352 349 347 348 349 348 346 349 350 349 347 338 331 331 332 334 334 332 333 334 335 335 333 332 329 328 326 326 326 325 323 322 323 323 323 323 323 323 323 323 324 326 327 329 331 332 332 334 334 335 336 336 337 336 333 332 333 334 336 337 339 341 341 340 338 339 341 341 340 340 341 341 341 340 338
326 335 333 324 330 337 338 344 335 321 327 337 335 335 331 332 345 350 349 354 354 351 352 350 347 347 348 347 346 347 349 348 344 338 335 334 334 335 335 335 336 336 336 335 332 330 330 330 329 329 329 328 325 323 324 324 323 322 323 323 322 323 324 325 327 329 331 332 332 333 335 336 337 337 337 336 333 332 333 336 339 340 341 341 340 340 338 338 339 339 339 338 340 340 339 338 337
329 335 336 328 330 328 327 334 328 321 329 331 329 332 332 334 344 347 346 349 349 348 349 349 347 347 348 347 345 346 348 346 341 338 336 335 335 335 336 336 336 336 336 333 331 331 331 332 331 330 330 327 325 324 324 323 323 322 322 322 322 322 324 325 327 328 330 331 331 332 334 336 337 337 337 336 334 333 332 335 339 340 340 340 338 338 337 336 336 336 336 337 338 338 337 336 336
326 333 335 328 329 325 323 332 326 323 329 326 326 331 333 338 342 347 350 346 342 345 346 347 348 347 348 347 345 346 347 345 340 338 337 336 336 336 336 337 336 335 334 332 332 332 332 332 332 331 329 327 325 325 324 323 323 323 323 323 322 322 324 326 328 328 329 330 331 331 332 334 335 336 336 336 335 335 334 335 337 338 339 338 338 338 336 335 335 336 337 337 336 335 334 334 335
326 335 335 326 332 328 322 328 327 324 328 326 326 328 334 339 338 343 347 339 336 342 345 347 347 347 348 347 346 346 346 344 339 338 337 336 337 336 336 336 334 334 333 332 333 332 333 332 331 330 329 327 328 327 326 324 323 323 322 322 322 323 324 326 327 327 328 328 329 329 330 331 332 333 334 334 334 334 335 335 336 336 336 336 336 337 337 336 336 336 337 336 335 334 334 334 333
323 330 328 322 334 337 327 328 333 330 326 327 328 332 342 346 340 341 341 337 336 339 343 347 346 346 347 346 348 346 345 343 339 338 338 336 336 336 336 335 332 332 331 332 333 333 333 331 330 330 329 329 330 329 327 325 324 323 323 323 324 325 325 326 325 325 326 327 328 328 328 329 329 330 331 331 331 332 332 333 333 334 334 334 334 335 335 335 335 335 335 334 334 333 333 333 333
326 325 325 323 331 342 334 326 331 330 322 328 333 341 354 348 337 343 344 343 342 339 342 345 344 345 345 345 348 346 344 342 339 338 337 335 336 336 335 333 330 329 329 331 332 332 331 331 330 330 330 331 331 329 327 326 324 324 324 325 325 326 325 324 324 324 325 326 326 326 327 328 329 329 329 330 330 330 330 330 330 330 331 331 331 332 331 332 332 332 332 332 332 332 332 332 333
330 324 326 327 325 335 336 325 328 327 322 333 337 342 354 343 332 346 347 344 345 342 342 342 341 343 342 344 347 345 344 340 338 338 336 335 336 335 334 330 328 328 329 330 331 331 330 331 331 331 331 332 331 329 328 326 325 324 325 326 326 325 324 324 324 324 325 326 326 326 326 328 329 329 329 329 329 329 329 329 329 329 329 329 330 329 329 330 330 330 330 330 330 330 331 332 332
327 325 325 326 324 328 328 324 328 323 320 331 334 337 346 342 344 358 354 349 347 343 342 341 339 340 341 343 346 344 343 340 339 339 336 335 335 334 331 327 327 328 328 329 330 330 331 331 332 332 332 332 331 329 327 325 324 324 325 326 326 324 324 323 323 324 325 326 326 326 327 327 327 328 328 328 328 328 328 329 329 329 329 330 330 330 330 330 330 331 331 330 330 330 330 331 331
323 326 324 328 335 334 326 324 327 325 322 328 331 335 343 348 357 367 362 354 345 342 343 342 339 340 341 343 344 344 342 340 339 338 335 335 334 332 329 326 328 329 328 330 329 330 332 332 332 333 332 332 331 329 327 325 325 325 325 326 326 324 324 323 324 324 325 326 326 326 326 326 326 326 327 327 327 328 328 329 329 329 329 329 329 329 329 329 329 330 330 331 331 331 331 331 331
325 326 324 326 331 328 324 324 325 327 328 330 331 331 339 352 357 362 361 352 342 341 342 340 338 339 341 342 343 343 341 338 339 337 335 334 332 330 328 327 329 329 329 330 330 331 333 333 333 333 332 333 331 328 325 324 325 325 326 326 326 324 323 323 324 325 325 325 326 326 326 326 326 326 326 326 327 327 328 327 327 326 325 325 326 327 327 328 328 328 329 330 330 332 332 333 332
330 328 328 328 328 327 326 325 326 327 327 332 332 325 333 353 355 355 355 345 338 339 339 337 338 338 340 342 342 342 340 338 338 337 335 333 331 328 328 328 329 330 330 331 331 332 332 333 333 333 333 333 331 326 323 323 324 325 326 326 325 324 323 323 324 325 326 326 327 327 326 326 326 326 326 326 326 326 326 326 325 325 324 324 326 327 328 328 329 330 330 330 330 332 332 333 333
Wind_Speed
3 4 4 3 1 0 2 5 2 3 3 3 2 3 2 0 3 4 5 7 4 3 10 15 17 13 7 6 10 11 9 3 3 3 4 12 25 25 23 23 21 20 22 24 23 24 28 29 26 24 23 22 23 23 24 23 23 23 24 24 25 24 24 24 24 24 24 23 22 21 20 19 18 18 17 17 18 18 18 18 17 16 15 15 16 16 15 15 14 14 13 12 11 10 9 8 7
2 2 2 2 1 1 3 4 3 3 4 4 2 2 2 2 4 5 5 5 3 8 19 21 16 12 10 14 14 10 10 6 4 11 15 24 29 24 24 24 22 22 20 22 23 22 24 26 27 27 25 23 22 22 23 23 23 24 24 25 25 24 25 25 25 24 23 22 21 20 19 18 18 17 17 17 16 16 16 16 16 15 15 16 17 16 16 15 14 13 12 11 10 9 8 8 7
2 3 3 2 2 1 3 4 3 3 4 4 2 2 1 3 4 3 3 7 14 21 24 20 15 10 10 12 8 5 5 7 13 21 24 29 30 26 25 23 24 23 21 21 21 21 21 22 25 26 27 26 24 23 23 23 24 24 24 24 25 25 25 25 25 24 23 21 20 19 18 18 17 17 16 16 16 15 15 15 15 15 15 16 16 16 15 14 13 12 11 10 9 8 7 6 6
2 4 3 3 3 2 3 4 3 3 3 2 1 3 1 4 4 4 8 16 20 22 19 12 10 7 9 9 5 7 5 8 18 25 28 29 28 28 26 24 25 24 23 22 21 21 21 21 22 23 24 25 26 25 25 24 24 25 25 25 25 25 25 25 24 23 22 21 20 18 17 17 17 17 16 16 15 15 15 15 15 15 15 15 14 14 13 12 11 10 9 8 7 6 5 4 4
4 3 3 2 3 3 2 2 2 4 1 3 1 1 2 4 6 6 10 16 15 14 13 9 6 7 12 9 3 5 7 12 19 24 30 28 25 28 26 25 25 24 24 24 23 21 21 21 21 21 22 23 24 24 25 25 25 24 24 24 24 25 24 24 23 22 21 20 18 18 17 17 17 17 16 16 15 15 15 15 15 15 14 13 13 12 11 10 9 8 7 6 5 4 3 3 2
4 3 3 2 3 2 2 2 1 2 2 4 2 1 4 5 7 9 11 13 12 12 12 11 11 11 12 11 10 8 9 13 20 24 29 27 26 27 26 26 25 24 24 24 24 22 21 20 20 21 21 21 21 22 23 23 24 24 24 24 24 23 23 22 21 20 19 18 18 17 17 17 17 17 16 16 15 14 14 14 14 14 13 13 12 11 10 9 7 6 5 4 3 3 2 2 2
4 2 2 2 2 3 3 3 1 2 2 3 3 3 5 6 8 9 9 9 9 9 10 15 20 16 8 6 11 8 4 10 21 25 26 26 26 27 25 25 25 24 24 24 23 22 21 20 20 20 20 20 20 21 22 23 23 23 23 23 23 22 22 21 20 19 18 17 17 16 16 16 16 16 15 15 14 14 14 14 13 13 13 12 11 10 9 8 7 6 5 4 3 3 2 3 3
3 2 2 2 2 3 3 2 2 2 0 1 4 5 6 9 10 6 4 4 4 7 13 16 18 13 4 5 7 5 5 12 21 23 24 26 26 27 25 24 25 24 24 24 23 21 20 20 19 19 19 19 19 20 21 22 22 22 22 22 21 21 20 19 19 18 17 16 16 16 15 15 15 15 14 14 13 13 13 12 12 11 11 11 10 10 9 8 7 6 6 5 4 4 3 3 3
2 1 2 2 2 3 2 2 1 1 3 1 6 5 8 13 11 6 5 6 6 10 10 6 7 9 7 12 10 5 8 14 20 22 24 25 26 26 23 23 24 24 24 24 22 21 20 19 19 19 18 18 18 19 20 20 20 20 20 20 20 19 19 18 17 17 16 16 15 15 15 14 14 14 13 13 13 12 12 11 11 10 10 9 9 8 7 7 7 6 6 6 5 5 4 4 4
2 1 1 1 3 4 3 2 1 1 2 3 7 9 11 12 12 9 6 6 7 8 7 8 11 13 12 12 8 5 10 16 21 23 23 24 25 24 22 22 23 24 24 24 22 21 20 19 18 18 18 17 17 18 18 19 19 18 18 18 18 17 17 16 16 15 15 15 14 14 14 14 13 13 12 12 12 11 11 10 9 9 8 7 7 7 6 6 6 6 5 5 5 5 5 5 4
1 2 1 3 4 4 1 1 2 1 1 4 7 11 12 12 13 11 10 7 7 9 9 13 14 16 14 9 6 5 11 18 20 23 24 23 24 23 22 21 23 24 23 24 22 21 20 18 18 17 17 17 17 17 17 17 17 17 16 17 16 16 15 15 15 14 14 14 14 13 13 13 12 11 11 11 10 10 9 8 8 7 7 6 6 6 6 6 5 5 5 5 5 5 5 5 5
0 1 3 4 3 1 1 2 1 1 3 4 5 9 11 12 12 8 9 7 7 11 5 5 11 14 10 5 7 9 14 18 19 22 23 22 23 22 21 22 24 23 22 23 22 21 20 19 18 17 17 16 16 16 16 16 15 15 15 15 15 15 14 14 14 13 13 13 13 12 12 11 11 10 10 10 9 9 8 7 7 6 6 6 6 6 6 6 6 6 6 6 5 5 6 6 6
3 1 4 3 2 2 1 1 2 4 4 2 2 8 12 9 9 10 11 7 7 7 1 8 17 14 7 5 11 12 16 20 19 20 22 22 22 21 21 22 25 24 22 22 21 21 20 19 18 17 17 16 16 16 15 15 15 14 14 14 14 14 13 13 13 13 12 12 12 12 12 11 11 10 9 9 8 8 7 7 7 6 6 6 6 6 6 7 7 7 7 7 7 6 7 7 7
4 2 3 2 1 2 2 2 1 5 2 3 4 10 10 7 9 15 14 8 3 3 8 18 18 11 9 9 10 15 19 22 21 20 21 21 22 22 21 22 24 23 21 20 20 20 20 19 19 18 18 17 17 16 15 15 14 14 14 13 13 13 13 13 13 12 12 12 12 11 12 11 10 10 9 9 8 8 7 7 7 7 7 7 6 7 7 7 8 7 8 8 8 8 8 8 7
4 3 3 3 3 3 3 2 2 6 1 3 6 12 12 9 12 16 13 5 3 8 15 16 8 6 9 10 10 20 22 24 23 21 21 21 22 22 21 22 22 22 21 20 19 19 20 20 19 19 18 18 17 16 16 15 14 14 13 13 12 12 12 12 12 12 12 11 11 11 11 10 10 10 9 9 8 8 8 8 8 8 8 8 8 7 7 7 7 8 8 9 9 9 10 9 8
5 2 4 4 2 3 2 2 3 4 0 1 9 17 14 9 12 10 5 4 9 12 8 6 1 4 10 12 14 24 24 25 25 22 22 22 23 22 22 22 21 21 20 20 19 19 20 19 19 19 18 17 17 16 15 15 14 13 12 12 11 11 11 11 11 11 11 10 10 10 10 10 10 9 9 9 9 9 9 9 9 9 9 9 9 8 7 7 7 8 9 10 10 10 11 11 9
4 0 4 4 3 3 3 3 4 4 3 2 8 16 12 4 8 7 3 8 14 9 6 3 1 1 9 12 18 26 25 26 25 22 22 22 24 24 23 22 22 22 20 20 19 19 19 19 19 18 17 16 16 15 14 14 14 13 13 12 12 11 11 11 11 11 10 10 11 11 11 11 10 10 10 10 10 10 10 10 10 10 10 9 9 9 8 8 8 8 9 10 9 10 12 12 10
3 2 4 3 3 3 4 5 5 5 5 3 6 15 14 6 8 10 6 9 13 11 12 10 7 8 10 15 23 27 26 27 25 23 22 22 25 25 25 23 22 21 20 20 19 19 19 19 18 17 16 16 15 15 14 14 14 14 13 13 13 12 12 12 11 11 11 11 12 12 11 11 11 11 11 11 11 11 11 11 11 11 10 10 10 10 10 9 8 8 9 10 9 10 12 12 10
3 3 4 2 4 2 5 9 8 8 9 8 9 15 16 10 12 13 6 6 11 12 12 15 19 19 19 23 27 27 28 28 23 22 21 21 25 26 25 24 23 22 21 20 20 19 18 18 18 17 16 16 16 15 14 14 14 13 13 13 13 13 13 12 12 12 12 12 12 11 11 11 11 11 12 12 12 12 12 13 13 12 11 11 12 12 11 9 8 9 9 9 10 10 11 11 9
1 4 4 2 5 2 5 11 13 17 19 15 11 13 16 14 13 11 6 6 7 8 9 14 22 25 26 28 28 29 28 26 22 21 20 20 23 24 24 23 23 22 20 19 19 19 19 18 17 17 16 16 16 15 15 14 13 13 14 14 14 14 13 12 12 12 11 12 12 11 11 11 11 11 12 13 13 14 14 14 14 13 12 12 13 13 13 11 9 9 8 9 10 10 11 10 9
1 3 3 3 4 4 4 11 18 23 24 20 15 14 13 10 10 11 12 7 1 5 10 13 23 30 31 30 29 29 27 24 22 21 20 20 22 23 21 20 19 19 18 18 19 19 19 19 18 17 16 17 16 15 15 15 14 14 15 15 15 14 13 13 13 12 11 12 12 12 12 12 12 12 13 14 14 15 14 14 14 14 14 13 14 14 13 12 10 8 8 9 11 12 12 11 9
3 1 4 7 7 5 5 15 20 22 23 21 16 11 9 8 8 11 11 5 2 6 9 15 25 30 31 31 30 29 27 24 23 22 21 20 20 20 18 18 18 18 18 18 20 19 19 18 18 17 17 17 16 15 15 15 15 15 15 15 15 14 13 13 13 12 12 13 13 13 13 13 13 13 13 14 14 15 14 14 14 14 15 15 15 15 13 12 11 9 10 11 12 12 12 12 11
3 2 3 9 11 9 11 17 18 20 20 15 11 10 12 12 8 5 3 2 2 5 11 18 24 28 30 31 30 28 26 24 23 21 20 20 19 18 17 17 17 17 17 18 19 19 19 18 19 18 17 17 16 15 15 16 15 15 16 16 15 14 13 13 13 13 13 13 14 14 14 13 13 13 13 14 14 15 14 14 14 14 15 15 16 16 14 13 12 11 12 13 12 12 12 12 12
4 2 2 6 10 14 18 16 14 17 18 15 14 14 11 10 6 2 5 5 5 9 16 22 25 28 29 29 28 27 24 22 22 20 18 17 16 15 15 13 14 15 15 17 18 19 19 19 19 18 18 18 17 16 16 17 16 16 16 16 15 14 13 13 12 13 13 13 13 13 13 13 13 14 14 14 14 14 14 13 14 14 14 15 16 16 15 14 14 13 13 13 12 11 11 11 12
7 2 4 9 10 14 19 15 15 18 20 21 20 15 10 10 10 6 7 8 10 15 21 24 26 28 27 27 27 25 23 22 21 20 18 16 13 13 13 11 12 13 14 15 16 17 18 19 19 20 19 18 17 17 16 17 18 17 17 17 16 14 13 11 11 12 12 12 13 13 13 13 13 14 14 14 14 14 14 14 14 15 14 14 15 16 15 14 14 13 13 13 13 11 11 11 12
5 4 6 11 11 14 18 16 18 18 19 22 18 11 8 11 12 9 7 13 16 20 24 26 26 26 27 26 24 23 22 21 20 20 19 17 15 14 13 12 12 12 11 13 14 15 16 17 19 20 20 19 17 17 16 17 18 18 17 17 16 15 13 12 12 13 13 13 13 14 14 14 14 14 15 15 15 15 15 15 15 15 15 15 16 16 15 15 14 13 13 13 13 13 12 11 12
3 11 11 12 13 13 17 17 19 15 12 16 14 7 7 9 8 5 7 17 20 23 25 26 25 24 25 24 23 21 18 17 17 18 19 19 18 16 14 12 11 10 10 11 13 14 15 16 17 18 20 20 19 17 17 17 18 17 17 16 16 15 13 13 14 14 14 15 15 15 15 15 15 15 16 16 16 16 16 16 16 16 16 16 15 15 15 15 15 14 13 13 14 14 13 13 13
10 21 14 10 12 12 13 15 16 10 6 12 17 11 11 12 6 3 12 19 21 25 25 25 25 23 23 23 22 21 18 16 16 16 17 16 15 15 14 11 9 8 8 8 9 12 14 15 15 16 18 20 20 18 18 18 17 17 16 16 15 14 13 13 15 15 15 16 16 16 17 17 17 17 17 17 17 17 17 17 17 17 17 16 16 15 15 16 16 15 15 15 15 15 15 14 14
17 23 11 6 9 7 6 7 8 6 6 8 13 11 8 9 5 5 15 20 22 25 24 23 23 23 22 22 22 21 19 17 17 16 13 12 11 11 10 8 8 6 6 6 7 10 12 13 14 16 17 18 18 18 17 18 18 17 16 16 15 14 14 14 15 15 15 16 16 17 18 18 18 18 18 19 19 18 18 18 18 18 18 17 17 16 16 17 17 17 17 17 16 16 15 14 14
13 12 7 5 7 1 4 2 6 6 8 2 6 5 3 5 4 8 16 20 23 22 21 22 21 22 22 22 22 20 20 18 16 14 13 13 11 10 9 8 8 6 6 6 6 6 8 11 13 14 16 17 16 16 16 16 16 16 16 16 16 15 15 15 16 16 16 16 17 18 18 19 19 19 19 20 21 21 21 20 20 19 18 18 17 17 18 18 18 18 18 18 17 17 16 14 14
7 4 4 4 5 4 6 5 5 5 5 3 5 5 4 4 3 9 16 20 23 20 18 20 20 21 22 22 23 21 20 18 16 14 14 14 12 11 9 8 8 7 7 6 3 2 4 7 9 10 12 13 14 15 15 15 15 15 15 15 16 17 17 18 18 17 17 17 19 19 19 20 20 21 21 22 23 24 24 23 22 20 19 19 19 18 19 19 19 19 18 18 18 18 17 15 14
3 4 1 1 4 5 5 6 7 3 3 2 7 5 3 3 2 9 16 19 21 19 16 18 18 19 21 22 24 23 21 19 18 16 16 16 14 12 11 9 8 8 7 5 4 3 3 4 4 6 7 9 11 13 14 14 15 14 14 15 16 16 17 18 18 18 18 18 20 20 20 21 22 23 23 24 25 25 25 25 24 22 21 21 20 20 20 21 21 20 19 19 19 19 18 17 15
3 3 4 2 4 5 2 5 9 3 1 3 5 5 3 2 5 9 14 18 20 18 15 16 18 18 20 22 24 24 23 22 21 19 18 17 16 15 13 10 9 8 7 6 5 6 5 5 4 4 5 7 9 11 12 13 14 14 14 15 15 16 17 18 18 19 20 20 21 22 22 23 24 24 25 27 28 28 28 28 27 25 24 24 22 22 22 22 21 22 21 20 19 19 19 18 17
2 2 3 3 4 6 3 3 8 3 4 3 5 5 4 2 8 10 11 17 19 17 15 15 17 18 19 21 22 23 24 24 23 20 18 18 17 17 15 13 11 9 8 8 7 8 8 8 7 6 6 8 10 11 12 14 14 15 15 15 15 16 18 19 20 21 22 21 23 24 25 25 26 26 27 28 29 30 31 31 30 28 27 26 25 24 24 23 23 23 23 22 21 20 20 20 19
4 3 3 2 2 5 6 4 6 5 6 4 6 6 4 4 8 10 9 13 17 16 15 15 16 17 18 20 21 22 24 24 23 21 20 19 19 19 17 14 12 10 10 9 8 9 10 11 11 10 11 12 12 13 15 16 17 18 18 17 17 19 20 21 22 23 23 23 23 24 25 26 27 28 29 31 32 33 33 33 32 32 31 30 29 28 26 26 26 25 25 24 23 23 22 21 20
6 5 5 6 4 4 4 1 2 8 7 4 5 6 7 7 7 9 9 10 15 16 14 15 16 17 18 19 20 21 22 23 22 22 22 21 21 20 18 16 14 12 12 11 9 9 11 12 12 13 14 15 15 16 17 18 19 20 21 21 20 21 23 23 23 23 23 25 25 25 26 27 28 29 29 31 33 33 33 33 32 32 33 33 33 32 30 28 27 27 26 26 25 24 24 24 23
6 6 5 6 6 3 1 1 2 7 7 4 3 7 7 7 5 8 11 9 11 14 14 15 15 17 19 18 19 19 20 20 20 20 20 20 20 19 18 16 14 12 12 12 11 10 10 10 11 12 14 16 17 17 18 19 19 20 21 22 20 20 25 25 24 24 24 26 27 28 28 28 29 29 28 29 30 30 31 32 32 33 33 34 36 35 33 30 28 28 27 27 27 26 26 26 25
5 5 5 3 4 2 1 2 1 4 6 2 4 9 6 4 3 7 12 9 7 11 14 15 16 17 19 19 18 17 17 17 17 16 16 15 15 15 14 13 10 8 9 10 9 8 8 8 8 9 11 14 15 16 16 16 15 14 15 16 13 12 18 19 17 18 20 21 22 24 26 26 26 27 27 28 29 29 30 30 32 34 34 35 37 36 35 33 31 30 29 29 29 29 28 27 27
5 4 6 4 4 4 3 3 5 5 5 2 4 9 4 1 2 5 9 7 6 8 10 15 20 18 19 19 18 17 16 15 15 14 13 12 11 10 10 8 6 6 7 7 8 7 7 6 6 6 7 9 9 10 10 10 9 8 8 10 9 7 10 11 11 13 14 16 18 19 22 24 26 27 27 27 28 30 31 31 32 34 34 35 36 35 36 37 35 32 31 30 30 30 30 29 29
4 5 7 4 6 6 3 1 4 6 4 5 6 6 2 2 2 3 4 5 5 7 7 12 19 19 19 19 18 17 16 15 14 13 12 12 11 9 8 7 6 5 5 6 6 7 6 5 4 4 5 6 6 7 8 8 8 7 6 7 9 10 11 12 13 14 16 18 19 20 21 23 25 27 27 28 29 30 31 33 34 34 35 36 35 33 36 39 39 36 32 32 32 32 33 33 32
1 3 7 7 6 5 5 4 3 6 7 6 9 5 4 2 1 1 0 2 5 6 7 10 13 17 19 18 17 17 16 15 14 13 12 11 10 9 7 7 7 6 5 4 4 5 5 5 5 5 6 7 8 9 10 10 10 10 10 10 12 14 15 16 18 19 20 22 23 23 24 25 25 25 25 26 27 28 30 32 34 34 35 36 36 35 35 37 40 40 35 34 34 34 35 35 35
1 2 6 10 9 8 9 8 5 6 4 2 6 4 4 4 2 5 2 1 4 4 8 10 10 14 17 17 18 17 16 15 14 12 11 10 9 9 8 8 7 6 5 4 4 4 4 6 7 7 8 8 9 10 11 13 14 14 15 16 17 18 19 20 21 21 22 23 24 25 25 26 26 26 24 23 24 25 27 29 32 33 33 35 35 36 36 37 40 41 38 38 38 36 36 36 36
2 3 6 9 11 12 13 9 6 4 3 4 4 4 3 4 4 7 3 3 4 3 6 10 11 14 16 18 18 19 19 17 15 13 12 11 10 9 9 8 8 7 6 5 4 5 7 8 8 8 9 9 10 11 12 14 15 16 17 19 20 21 21 22 21 21 22 22 23 24 25 26 26 26 25 24 23 24 25 25 27 30 31 32 33 34 37 38 39 39 40 40 38 36 39 38 34
3 5 8 11 13 14 13 10 6 3 3 2 3 4 2 2 5 5 6 5 5 5 7 10 13 15 17 18 18 19 21 19 17 16 13 13 12 11 10 9 9 9 8 6 5 6 7 7 8 10 11 12 13 14 15 15 16 18 19 20 20 21 21 22 22 22 21 22 22 22 24 25 26 26 25 24 22 23 24 24 23 25 28 31 32 32 34 37 38 38 39 38 36 37 39 35 31
3 6 9 10 11 11 10 8 5 2 4 2 3 2 2 3 5 1 5 5 6 9 10 10 14 18 19 20 19 19 21 21 19 17 16 15 14 13 12 11 12 11 9 6 5 5 5 6 8 12 13 14 15 17 17 18 18 19 20 21 21 22 22 23 23 23 22 22 22 22 23 24 25 26 25 23 22 21 23 24 24 24 27 29 31 31 32 36 37 35 34 34 35 37 36 31 28
5 7 8 6 6 6 5 5 5 4 3 4 8 5 3 4 4 1 4 4 9 11 9 11 16 21 22 22 21 20 21 22 20 18 17 16 15 13 13 13 13 11 8 6 5 5 7 8 10 12 14 15 16 18 19 19 19 20 21 22 22 22 22 22 21 21 20 21 21 22 22 23 23 24 24 23 21 21 21 23 24 24 25 27 27 28 30 33 33 31 30 31 33 35 35 30 24
9 8 8 8 7 6 5 3 5 5 1 6 8 8 5 3 4 5 5 5 8 10 7 9 15 21 24 24 24 23 24 24 21 19 17 17 16 15 14 15 13 10 7 6 6 8 8 8 10 12 13 15 16 17 18 19 21 22 22 22 22 22 22 21 20 19 18 18 19 20 21 21 20 20 20 20 20 19 19 20 22 23 24 26 26 26 27 29 29 27 27 29 31 32 30 25 21
7 5 5 6 4 4 4 4 4 3 4 6 4 5 5 2 5 6 8 5 4 10 11 11 16 22 27 27 26 26 26 24 21 20 19 19 19 17 16 15 12 9 6 7 8 9 9 9 11 12 13 15 16 16 17 19 20 21 21 21 21 21 20 20 20 20 20 19 18 19 19 17 17 15 15 16 17 17 17 17 19 21 22 24 23 23 25 25 25 25 25 26 28 26 25 23 23
5 5 6 5 2 2 1 2 0 3 5 4 1 4 4 5 7 6 9 8 5 10 15 18 22 26 29 30 28 28 27 24 23 22 21 20 20 18 15 13 10 8 8 9 10 10 11 11 12 12 13 15 16 16 17 18 19 18 19 19 19 19 18 18 18 19 20 19 18 18 17 16 14 13 13 14 15 16 17 16 17 19 21 21 20 21 23 23 22 23 23 24 26 26 27 27 28
4 5 5 4 3 2 1 3 2 3 3 2 2 1 1 5 5 4 7 8 10 14 18 23 28 31 33 33 31 29 28 26 24 23 22 21 19 16 14 11 9 9 10 11 11 11 11 12 12 12 14 16 16 17 17 17 17 17 17 18 18 17 16 16 16 17 18 19 18 17 16 16 14 13 12 13 14 15 15 15 15 17 19 19 19 20 21 21 22 23 24 26 28 29 30 31 32
3 4 6 5 4 4 3 4 3 3 2 1 2 1 3 3 3 5 7 9 12 16 20 23 27 31 33 32 31 30 29 27 25 24 23 20 17 15 13 10 9 11 11 11 11 11 11 11 12 14 15 16 16 17 17 17 16 16 15 15 15 14 14 14 15 16 18 19 19 18 17 16 16 15 14 14 15 16 16 16 16 17 18 19 19 20 21 22 24 25 27 29 30 31 31 32 33
0 2 5 2 4 5 2 3 5 3 1 1 1 2 4 4 3 3 3 6 8 14 19 21 24 27 27 28 31 32 31 28 27 25 23 19 16 15 13 10 11 12 11 11 11 11 11 11 13 15 15 15 16 17 17 16 16 15 14 13 13 12 13 13 14 16 17 19 20 20 19 18 17 17 16 16 16 17 18 18 19 19 21 21 22 23 24 26 27 29 30 32 33 34 34 35 35
1 2 3 3 3 7 5 1 0 3 2 2 1 3 4 3 3 4 4 2 2 8 14 19 23 25 26 29 32 33 32 30 28 27 23 18 17 16 13 10 11 12 10 10 10 11 11 12 14 15 14 14 15 17 17 16 16 15 13 12 12 13 13 14 15 15 17 18 19 19 20 19 18 17 17 17 17 18 19 20 20 21 22 24 25 27 28 30 32 33 35 36 37 37 38 40 39
4 3 4 3 3 5 5 2 3 4 0 3 2 2 5 3 2 4 3 3 3 5 9 14 19 23 26 30 34 35 34 32 29 27 22 18 17 16 12 11 12 10 9 9 10 11 11 13 14 13 13 14 15 16 16 16 16 15 13 12 13 14 15 15 16 16 16 17 17 18 18 18 17 16 16 17 18 18 19 19 20 21 22 23 25 27 29 31 33 35 37 39 40 39 40 42 42
4 6 4 4 3 1 1 2 1 1 1 3 4 3 3 3 3 4 3 6 7 6 7 10 15 23 27 31 35 36 34 32 31 27 22 19 18 16 12 11 10 7 6 8 9 11 11 12 12 12 13 13 14 15 15 15 16 15 14 13 14 15 16 16 16 16 16 16 17 17 16 15 15 14 14 14 15 16 17 17 18 19 21 22 23 25 27 29 30 32 35 37 38 39 39 41 42
6 5 3 2 3 4 2 2 3 3 2 2 3 4 3 5 6 5 8 10 10 9 9 10 16 25 30 33 36 37 35 34 32 28 23 20 19 16 12 11 9 6 6 8 10 11 11 11 12 12 13 13 14 15 15 14 15 15 14 14 14 15 17 18 17 17 17 17 16 16 15 14 14 15 15 15 14 14 14 14 16 17 19 20 22 24 25 27 29 30 32 34 35 36 37 39 41
4 3 1 1 2 2 2 1 2 3 3 2 1 2 5 6 5 7 10 9 11 13 12 12 19 28 32 35 37 37 36 35 32 28 23 21 19 15 12 11 10 7 8 10 10 11 11 12 12 12 13 13 14 14 14 14 14 14 14 14 14 15 16 18 18 18 19 17 15 14 14 14 15 15 15 14 14 13 13 14 15 16 18 19 20 22 23 25 27 29 30 32 33 34 35 36 38
5 4 4 4 3 4 3 1 2 1 3 3 4 2 7 6 4 6 8 7 11 16 15 15 21 29 32 35 37 37 37 35 31 27 23 21 18 14 13 13 11 9 10 10 11 11 12 12 12 12 13 13 14 14 14 14 13 13 14 14 14 14 16 17 18 18 17 15 13 13 13 14 15 14 13 12 12 13 15 16 17 18 19 19 20 21 23 25 26 27 28 29 31 31 33 34 35
Wind_Direction
148 130 126 139 122 199 313 327 19 16 69 75 353 45 18 132 141 106 110 131 128 136 138 141 149 149 136 131 134 105 67 90 167 117 139 150 147 151 150 148 143 140 137 133 132 129 131 132 135 138 139 140 137 136 134 132 133 135 138 141 141 139 141 143 142 140 138 138 138 139 140 140 139 139 138 137 136 135 136 138 139 140 138 135 132 130 129 128 128 129 129 130 131 133 131 129 128
125 107 118 140 4 23 351 351 61 5 45 63 351 47 338 16 94 125 146 151 122 118 125 127 127 118 111 116 116 91 45 33 125 117 124 143 147 151 151 148 143 141 139 134 132 129 129 131 134 138 138 140 140 137 133 131 131 133 135 139 140 138 139 141 140 139 138 137 138 138 138 139 139 139 138 137 135 135 137 138 139 140 139 136 134 134 133 132 131 131 131 130 130 129 127 126 125
92 59 57 59 35 31 358 14 69 43 56 68 3 322 345 97 122 154 143 120 117 118 119 115 101 92 100 101 82 63 61 76 118 121 128 147 150 151 153 149 145 143 140 137 135 132 130 131 133 135 136 137 138 137 134 133 133 134 135 137 138 137 138 138 139 139 139 139 140 140 140 141 140 140 139 138 136 137 137 138 139 140 140 138 137 136 135 134 132 131 130 126 123 122 124 124 123
98 63 49 24 29 14 11 37 95 92 74 104 48 322 40 132 143 118 112 118 122 121 119 106 78 72 86 89 76 75 91 116 126 129 137 152 153 151 153 151 148 145 143 141 139 136 134 134 132 134 134 134 134 134 134 136 137 137 137 137 137 138 139 138 139 141 141 142 143 143 143 142 142 141 140 139 139 140 139 140 142 143 142 141 139 138 136 135 133 132 127 121 119 120 122 125 126
119 89 64 29 11 4 51 66 97 85 110 162 114 291 131 139 133 118 120 119 123 124 120 109 84 85 79 69 74 98 124 135 136 137 141 151 155 151 152 153 152 148 146 145 142 139 137 137 135 136 135 134 133 132 134 136 139 139 139 140 140 141 141 141 142 144 144 144 145 145 145 145 144 143 142 142 142 142 142 142 143 144 143 142 141 138 137 137 137 134 131 127 128 131 132 139 147
108 110 81 55 12 1 67 67 29 357 234 162 106 199 142 136 136 130 124 107 104 115 115 112 115 107 81 63 62 92 135 139 142 143 142 149 155 153 153 155 154 150 147 145 143 140 138 139 138 137 137 136 135 135 136 137 139 141 142 142 143 144 144 145 146 147 147 146 146 146 146 147 146 145 146 145 146 147 146 146 145 145 144 145 144 143 144 145 147 147 149 151 154 163 170 184 194
63 92 101 91 13 6 74 98 227 277 240 149 119 167 148 140 141 131 117 98 91 100 111 117 117 104 86 85 67 68 136 150 143 143 142 147 154 154 154 156 156 151 147 146 143 140 140 141 140 139 139 139 140 139 140 140 141 143 144 145 147 147 146 148 150 150 150 149 148 148 148 148 148 148 149 150 151 151 151 151 150 149 148 149 150 152 156 159 164 171 182 190 194 197 204 207 213
49 71 126 112 31 23 83 77 245 202 293 129 115 148 158 144 136 119 74 77 96 107 118 119 109 92 72 114 88 74 131 152 142 140 143 147 153 154 154 156 158 154 149 148 144 142 142 142 143 142 141 142 143 143 143 143 144 145 146 148 149 148 148 150 152 152 153 153 151 151 151 150 151 151 153 153 153 154 154 153 153 154 153 155 158 163 168 175 181 190 199 209 213 214 221 222 227
107 123 133 100 58 39 50 17 281 225 299 104 109 140 153 140 126 103 40 35 89 113 116 110 89 95 96 93 96 111 127 147 143 140 145 149 153 153 155 157 160 156 150 148 146 145 144 144 144 143 144 144 146 145 145 146 147 148 149 150 150 150 150 152 153 155 156 157 156 156 157 156 157 157 157 157 157 157 157 157 157 158 161 164 169 175 182 188 195 201 206 213 217 220 226 233 238
120 172 150 84 70 46 25 353 288 265 284 119 118 145 149 137 117 100 83 50 88 104 80 81 94 105 105 90 91 114 127 147 145 142 148 150 152 152 154 157 162 158 151 150 149 148 145 146 146 146 147 147 148 148 149 150 150 151 151 153 153 154 154 155 156 158 160 161 162 162 163 164 164 164 163 162 161 162 162 164 165 168 172 178 183 189 197 201 205 209 213 218 221 227 229 236 239
88 213 152 69 61 50 32 296 301 303 133 100 111 142 147 133 112 93 100 94 92 108 94 89 98 100 94 80 87 118 138 149 149 145 149 151 152 153 153 157 163 160 155 152 150 150 148 149 149 149 151 151 152 151 153 154 155 155 156 158 158 159 159 160 161 161 163 166 169 170 170 169 170 172 173 172 172 174 175 177 179 184 187 194 200 203 209 213 222 227 236 239 235 236 235 238 237
276 224 109 79 79 66 210 195 244 68 86 93 112 149 148 126 111 100 108 110 107 121 115 91 122 112 84 60 108 140 148 150 151 146 149 152 152 154 155 157 163 162 157 156 153 153 152 152 153 154 155 155 156 155 157 158 160 161 161 163 162 164 164 166 167 166 167 170 173 176 178 178 179 180 182 184 185 187 191 195 195 201 204 212 219 224 231 235 246 250 259 257 251 244 239 239 235
208 171 95 73 121 130 118 121 146 98 64 51 119 145 141 117 113 127 117 116 125 121 97 138 140 118 81 103 128 150 155 154 152 146 149 152 154 156 156 158 163 163 161 160 158 157 157 157 157 158 159 159 160 159 160 162 164 166 166 167 167 169 169 170 172 173 175 176 177 180 183 187 189 190 191 192 193 197 199 203 207 213 220 229 235 244 253 256 260 260 264 259 256 250 242 239 234
206 218 119 89 59 100 89 70 100 96 35 317 119 131 125 105 127 137 128 120 105 97 129 141 137 103 108 125 139 161 161 160 153 147 152 154 158 158 158 159 163 165 163 164 164 163 162 162 163 164 165 164 164 164 164 165 167 169 170 170 172 173 174 176 177 179 181 182 183 185 188 191 195 195 197 198 200 206 209 213 219 227 235 242 245 252 258 260 263 261 263 259 257 253 249 245 236
227 248 105 90 22 30 66 89 109 103 86 302 122 122 99 103 141 139 135 123 60 124 136 145 127 72 149 157 166 173 165 163 157 152 156 158 162 160 161 161 164 167 166 167 168 169 168 167 168 169 170 169 168 168 168 169 170 172 173 173 176 177 179 181 182 184 185 188 190 192 196 197 199 200 202 206 209 215 221 227 234 241 247 252 253 253 254 258 262 263 265 261 260 258 255 251 242
230 237 71 74 56 60 62 91 120 106 189 301 122 121 95 104 139 131 144 124 113 130 126 155 161 32 170 168 167 172 165 161 158 156 159 162 166 164 164 164 166 169 169 171 171 173 173 172 173 173 173 173 173 172 171 172 173 174 176 178 179 181 184 186 187 189 192 196 199 202 206 209 210 210 215 219 221 226 232 237 242 247 251 255 257 256 254 254 257 263 264 260 260 261 258 250 243
210 166 61 66 95 127 151 163 160 141 157 146 127 126 109 102 126 118 149 119 116 118 64 90 202 72 166 163 157 162 160 160 160 161 163 164 169 168 168 169 170 171 171 173 174 176 177 177 178 177 176 176 177 177 175 176 178 178 179 183 185 188 190 191 191 193 199 204 206 210 214 220 225 227 231 234 236 239 242 244 243 245 249 252 255 255 253 249 250 256 259 259 257 259 258 250 240
159 100 81 94 142 150 176 186 170 137 126 127 126 130 123 116 125 128 133 110 100 83 72 87 93 104 143 150 150 155 157 160 163 165 164 165 172 173 172 174 175 175 175 176 179 181 181 182 182 181 180 180 181 183 181 181 186 186 184 187 191 194 196 198 199 199 204 212 214 217 221 225 231 238 243 246 248 250 252 251 247 244 246 249 251 251 249 244 244 249 254 258 257 257 259 256 248
130 104 90 153 195 173 155 156 150 131 124 120 121 132 132 135 141 141 147 120 100 83 79 91 100 109 129 143 149 154 157 162 165 166 164 166 174 176 176 179 180 180 179 181 183 184 186 187 186 185 184 183 185 186 187 189 194 194 191 192 197 201 201 203 207 208 208 216 220 221 226 229 232 240 245 250 251 252 253 252 251 248 246 248 252 253 252 244 237 242 249 255 259 260 261 263 259
127 92 81 225 203 113 123 139 140 139 134 128 127 136 134 139 150 153 148 115 100 115 119 107 113 125 136 145 150 153 159 163 163 163 164 167 174 177 178 180 184 185 185 186 188 189 190 192 191 189 188 188 190 191 192 196 200 200 199 197 201 205 205 205 209 216 214 219 225 224 229 233 235 241 247 250 249 248 249 250 252 252 249 250 255 258 261 258 244 242 251 258 264 266 263 263 259
91 103 142 204 169 95 117 142 137 138 138 137 136 131 127 142 159 154 137 111 6 184 161 140 137 140 144 149 152 155 160 161 160 163 166 168 173 177 178 180 182 186 190 192 195 195 194 196 197 194 194 194 196 199 199 202 205 205 204 202 205 208 210 209 211 221 224 226 230 231 234 238 241 243 247 250 249 249 248 250 254 255 255 255 257 259 263 267 261 254 258 263 269 271 266 260 254
85 17 181 168 148 109 136 144 138 141 140 135 128 118 121 135 140 146 142 127 231 196 169 151 146 148 150 153 154 157 161 161 163 167 169 171 173 175 177 178 179 185 193 197 199 200 199 200 202 200 200 202 204 205 205 207 209 210 209 208 209 211 214 217 219 226 230 233 235 235 236 239 242 243 245 247 248 249 248 251 255 256 257 257 258 258 261 267 266 260 259 264 269 272 270 263 255
110 14 168 157 147 129 143 145 142 142 128 112 107 114 119 114 110 125 118 75 128 161 155 147 146 150 152 154 157 162 166 166 167 170 172 174 175 175 174 176 180 185 193 198 202 203 202 202 204 206 206 210 211 208 210 211 213 214 213 213 214 217 222 224 227 230 233 236 238 239 241 244 246 246 246 247 247 249 250 251 253 255 255 256 258 259 261 265 266 262 261 266 272 274 273 265 258
91 112 137 130 133 132 144 144 135 127 108 102 115 120 112 108 123 91 53 72 111 141 145 143 145 150 153 157 162 166 170 170 172 175 176 179 180 177 175 179 185 190 196 198 202 205 205 204 205 211 213 216 217 213 213 214 217 216 214 217 219 225 231 231 232 235 237 239 242 245 248 251 253 253 252 251 250 251 253 253 253 256 256 257 258 259 261 263 265 265 266 270 273 275 273 264 259
49 94 121 108 119 131 138 129 117 112 107 114 113 105 93 99 112 79 67 102 125 140 142 142 145 151 157 160 166 171 174 177 179 180 183 187 187 183 184 190 192 198 204 202 206 208 208 208 210 216 218 220 220 218 217 218 220 219 218 222 226 232 236 236 237 240 243 246 249 251 253 255 258 260 260 258 255 254 255 254 254 256 258 260 259 260 260 259 262 265 266 269 271 272 271 265 259
28 69 108 116 124 129 129 119 116 115 116 116 104 97 93 105 107 67 86 126 135 143 142 145 147 153 161 164 171 175 178 182 184 186 189 192 192 192 194 198 203 208 211 213 216 216 212 212 216 220 223 225 226 225 224 224 224 224 225 229 234 238 241 243 244 245 248 251 254 256 258 259 261 263 264 262 258 257 256 254 255 258 259 259 259 262 261 258 261 265 268 269 270 271 269 263 258
65 88 86 106 119 123 125 124 125 122 120 114 105 100 59 82 116 67 112 137 143 145 143 150 151 154 164 169 175 179 183 186 188 191 193 197 199 200 201 205 214 217 220 226 227 225 222 220 221 222 225 228 231 232 233 233 231 230 231 234 239 243 245 248 250 251 252 255 258 259 260 261 262 263 263 261 258 257 256 254 255 257 258 259 259 261 262 260 260 262 266 270 270 269 267 261 257
118 108 82 73 95 106 118 129 139 130 119 112 97 83 39 47 71 103 136 145 150 148 147 154 154 157 167 172 177 183 189 190 193 198 198 201 203 203 205 211 216 218 226 236 237 230 226 226 227 225 226 229 232 236 238 238 237 235 235 237 241 245 249 251 254 257 258 260 261 260 260 261 263 264 264 263 261 259 256 255 256 257 258 258 258 260 260 259 258 258 262 268 268 266 265 260 257
125 117 92 54 68 91 124 133 173 163 136 119 83 66 15 19 35 119 143 149 151 149 151 157 158 162 169 174 179 185 193 198 201 206 208 207 207 207 207 214 220 225 235 245 244 234 229 230 229 226 226 229 233 237 240 240 238 238 238 239 242 246 250 253 257 262 267 268 266 263 263 262 262 263 264 265 265 265 262 259 257 257 259 256 255 258 259 258 258 260 261 263 262 262 262 260 258
123 109 99 106 68 104 203 201 229 181 136 85 46 72 312 333 42 125 150 153 150 149 154 161 163 168 173 178 182 189 196 203 208 212 216 214 214 214 211 218 226 234 246 249 243 233 232 231 228 226 226 230 236 240 243 244 242 241 241 242 244 247 251 255 260 265 269 271 270 268 268 267 267 267 268 268 266 266 266 263 260 258 258 256 254 254 256 258 259 261 261 260 259 259 260 259 259
118 82 72 105 117 197 238 229 212 171 159 344 47 124 242 290 61 130 155 158 152 151 159 166 169 174 178 183 187 194 201 208 217 220 221 221 222 222 221 223 228 235 239 247 246 216 222 225 226 228 230 235 240 244 248 251 251 250 249 250 250 252 258 263 265 268 270 273 273 272 273 273 273 273 273 273 271 268 268 267 264 262 259 256 253 253 254 256 257 258 259 258 256 255 257 258 258
74 100 84 3 144 199 264 226 207 194 203 354 66 122 239 257 156 142 155 161 157 154 164 172 176 181 184 189 193 198 205 211 219 225 227 228 229 230 231 229 234 239 233 240 243 214 198 189 202 224 235 241 242 244 247 252 256 259 260 259 260 262 267 271 274 278 280 281 279 277 278 278 278 277 275 274 274 272 271 270 269 267 264 260 255 253 253 254 254 255 256 257 255 253 254 256 257
2 97 172 205 153 186 254 220 224 233 122 19 54 131 194 226 155 148 158 164 158 154 164 176 180 186 190 194 199 202 205 210 218 226 230 232 234 235 237 237 239 243 238 241 240 231 220 200 197 209 227 243 250 249 248 252 257 261 264 264 266 269 270 273 277 279 280 281 281 280 281 282 282 282 280 277 276 275 274 273 272 270 267 264 260 255 253 253 254 255 255 255 254 254 254 253 254
300 70 136 206 171 172 175 221 224 170 88 34 46 111 169 167 132 138 158 163 159 154 162 174 179 186 193 197 202 206 207 211 217 224 228 232 235 236 237 238 240 244 242 243 249 251 248 241 242 248 251 254 258 260 260 260 262 263 264 265 269 272 272 272 274 276 276 277 278 278 278 280 281 282 283 283 281 279 277 274 272 269 267 264 262 258 254 253 253 254 255 253 252 253 254 254 255
190 154 122 186 185 182 178 190 202 145 85 74 85 99 135 126 117 125 149 161 157 154 160 169 174 179 187 193 200 207 211 215 220 224 228 232 234 237 238 237 239 243 239 240 254 261 263 260 258 263 268 267 267 269 271 271 271 270 269 271 273 276 277 275 276 278 278 279 278 278 277 278 281 282 282 282 281 281 280 277 272 267 265 263 263 260 255 251 250 250 251 251 251 251 253 256 257
162 163 140 157 169 215 205 177 147 126 93 62 105 125 136 132 123 124 141 158 149 148 154 158 162 168 175 184 194 204 213 218 221 224 228 232 234 237 237 234 236 240 236 236 248 260 267 268 264 263 266 271 275 276 279 279 276 276 276 275 274 277 279 279 280 280 281 282 281 279 277 278 281 280 278 278 278 279 280 278 274 268 264 262 262 260 257 253 250 249 249 250 251 251 252 254 256
138 133 139 170 162 186 225 28 42 113 95 13 99 130 134 139 134 123 139 154 147 147 150 151 155 159 165 175 187 198 208 214 219 222 225 228 230 232 232 230 233 237 234 237 249 259 267 273 272 268 267 270 273 276 279 282 281 280 278 274 274 275 276 276 278 280 282 283 282 281 279 279 281 278 275 275 277 278 279 277 274 271 266 261 259 259 260 258 255 253 251 251 250 251 252 253 256
133 139 150 163 152 161 77 99 341 56 82 29 112 120 115 126 125 121 137 151 164 161 156 155 157 156 159 167 177 188 197 202 205 208 211 215 218 222 224 228 234 234 228 237 254 265 267 270 270 270 269 268 269 273 280 288 293 294 289 286 290 283 277 279 283 284 287 286 285 285 282 280 279 276 274 274 274 276 278 277 275 273 270 264 259 259 259 259 257 255 253 251 248 249 252 253 253
122 136 138 133 150 126 57 42 1 18 90 127 126 119 98 38 91 113 139 158 190 187 178 167 162 158 157 160 166 175 179 183 186 190 193 195 200 206 208 213 218 213 211 223 242 256 260 264 267 269 268 265 266 273 281 291 299 306 308 308 315 305 288 290 290 289 292 290 287 286 283 280 278 277 278 278 276 275 274 273 273 273 272 266 261 260 258 256 255 254 252 251 250 250 252 253 251
110 132 126 150 181 138 117 321 15 29 84 128 121 101 24 351 64 85 141 173 191 202 205 178 168 164 162 162 166 171 173 173 175 180 184 183 185 188 188 195 199 205 211 214 229 244 252 258 261 257 255 258 262 269 278 281 281 285 292 295 301 302 297 292 287 286 289 290 288 286 284 282 279 277 276 277 277 277 275 271 269 271 271 265 260 258 257 256 254 253 254 255 253 251 251 253 252
103 147 134 154 178 125 124 157 105 44 47 108 111 64 327 293 159 217 305 162 176 190 193 182 176 172 167 167 170 173 176 177 177 180 184 186 190 195 201 211 217 226 232 230 232 236 245 256 263 262 260 262 267 273 279 284 285 284 285 286 291 297 298 297 296 293 293 293 292 290 288 286 286 282 278 275 273 275 277 274 269 268 269 266 262 259 257 256 254 252 254 257 256 254 253 252 251
113 231 168 160 150 116 117 132 111 61 27 192 129 89 281 291 233 226 269 161 175 186 193 191 186 179 177 177 176 177 178 181 188 190 191 196 202 210 219 224 225 225 225 227 236 252 276 290 294 290 284 281 281 284 286 290 293 294 295 295 296 297 298 298 298 297 295 295 294 293 291 289 288 288 286 283 277 273 275 276 271 267 265 262 260 260 258 255 254 253 252 255 256 257 256 251 250
117 207 167 145 132 126 137 142 117 111 199 222 135 125 239 301 265 223 208 193 205 211 211 210 201 188 185 187 188 187 183 184 191 195 198 201 202 207 213 214 212 210 207 212 244 291 310 317 322 322 319 314 309 304 300 297 297 298 299 299 300 300 299 298 298 298 298 298 296 293 291 288 286 285 285 284 281 276 274 277 275 269 266 262 259 258 257 256 256 255 253 253 255 257 253 248 249
138 173 138 130 135 143 156 149 128 163 162 95 86 108 120 273 258 215 169 182 223 230 226 223 214 201 191 191 194 193 190 189 191 191 193 193 192 193 196 198 197 198 202 218 264 297 311 324 337 342 342 338 333 326 319 313 309 307 306 305 304 304 303 304 304 304 304 302 298 294 290 287 286 283 280 278 277 276 275 277 277 273 270 267 263 260 260 259 256 254 253 254 257 256 251 248 251
181 162 132 134 142 147 155 140 116 116 109 118 236 151 111 257 273 223 158 185 228 226 220 217 213 208 199 194 194 192 191 189 187 187 185 186 190 189 187 188 189 196 208 234 270 296 315 333 343 344 344 341 334 329 324 319 315 311 309 307 306 305 305 306 308 309 308 305 301 297 292 288 286 283 279 275 274 275 276 277 277 274 270 268 265 261 262 262 259 256 254 254 256 255 251 249 251
148 121 94 82 82 91 100 113 105 68 89 206 222 189 169 267 279 164 153 209 226 219 214 210 210 209 204 198 194 191 188 184 182 182 183 187 192 189 187 189 196 209 227 261 295 318 327 334 337 338 340 340 334 327 322 318 313 310 309 308 307 308 309 310 311 312 311 307 302 298 292 288 285 280 274 271 273 277 280 279 276 273 271 270 265 258 257 261 263 259 254 254 255 256 255 252 250
128 97 71 62 44 42 48 57 82 72 311 251 225 192 176 273 268 196 181 220 212 195 195 206 207 209 208 202 196 191 186 183 181 182 184 188 191 190 190 196 207 222 244 284 305 311 311 314 317 319 325 330 326 320 313 309 308 309 310 311 312 315 318 320 321 321 318 312 305 300 295 290 284 277 269 267 272 280 284 282 279 274 271 270 266 260 259 263 266 262 257 257 256 256 258 258 255
108 88 88 87 28 21 34 3 42 100 247 268 241 177 145 244 259 215 215 243 192 175 189 196 198 206 207 203 198 194 189 186 185 185 187 191 194 195 196 202 213 227 251 280 288 285 281 284 293 298 304 308 309 307 304 304 305 307 309 310 314 319 322 324 326 325 322 319 317 313 308 302 293 281 268 264 271 279 281 281 280 276 272 270 269 268 265 264 263 260 259 262 262 262 262 262 260
82 88 90 93 25 17 39 317 350 199 241 277 239 139 135 241 251 222 221 238 221 196 198 195 193 199 203 202 198 195 192 190 189 191 193 197 200 203 205 208 220 237 256 270 271 266 267 274 283 290 297 300 303 305 307 308 307 307 308 310 315 321 323 325 325 323 321 321 324 325 321 317 310 296 279 272 274 278 276 272 273 273 272 272 272 271 268 264 259 258 261 267 271 271 270 268 265
130 130 114 114 96 79 254 262 267 251 250 289 296 168 183 273 268 210 211 230 228 216 208 202 197 196 199 199 197 196 196 195 194 196 199 202 204 207 209 214 230 248 258 264 262 259 265 273 281 292 298 300 304 309 312 311 309 310 310 310 314 318 322 325 324 323 322 322 323 326 324 321 317 309 295 285 281 278 272 267 266 270 272 271 270 270 268 263 261 262 265 267 268 267 268 268 268
154 153 128 139 151 149 211 225 202 235 242 266 312 242 187 232 234 204 222 248 239 221 212 205 201 199 198 197 198 199 201 200 199 202 205 206 206 207 210 220 239 251 257 259 257 259 266 275 287 296 297 298 304 311 314 314 314 315 313 313 315 318 322 323 322 322 321 320 320 321 320 316 313 309 300 292 286 282 276 270 267 268 272 273 271 269 266 262 261 262 263 264 265 265 266 266 266
207 136 109 140 178 146 137 188 178 174 175 218 244 225 213 215 242 259 262 263 238 212 202 194 195 198 196 196 201 203 204 204 203 206 208 206 205 208 213 227 245 254 258 256 255 262 270 281 292 295 293 295 303 309 315 318 321 321 319 319 320 321 322 321 320 319 317 317 319 319 318 315 311 307 302 297 292 288 285 281 276 273 273 274 274 274 272 270 268 267 266 266 265 265 266 266 265
147 128 163 205 156 118 115 173 61 71 91 265 260 270 298 322 300 316 18 51 175 187 185 182 186 191 192 196 202 205 206 205 205 208 208 203 205 211 216 233 250 256 258 256 260 268 276 286 292 291 290 294 300 307 315 320 323 323 322 322 322 323 325 324 322 321 317 316 317 319 320 318 313 307 303 301 298 295 293 289 287 283 279 277 276 275 276 276 274 273 271 269 267 266 267 267 267
132 179 198 171 107 94 106 118 16 43 161 278 323 276 292 341 316 312 14 84 166 180 176 176 181 186 192 198 202 205 207 206 207 208 205 202 207 212 219 239 251 254 257 260 265 270 276 285 288 288 289 292 297 305 314 319 321 323 320 318 321 325 327 327 325 323 318 316 317 320 321 322 320 314 306 302 300 299 298 295 292 290 286 284 280 278 277 277 276 275 273 271 270 268 268 267 266
113 159 157 115 122 136 84 117 136 106 210 282 314 306 266 210 226 272 247 193 190 190 181 177 182 188 194 199 203 206 208 207 207 206 202 201 207 212 220 239 244 244 257 261 263 267 274 282 285 285 286 288 296 305 314 318 319 320 317 316 321 326 327 327 325 323 320 319 320 320 322 324 325 322 315 309 305 302 299 297 295 292 290 288 286 284 281 280 279 277 276 274 272 270 268 266 266
59 92 73 53 127 155 164 144 156 165 167 255 306 328 280 227 215 217 218 201 181 181 190 192 193 194 196 199 202 205 207 207 206 203 199 200 206 211 220 233 234 231 247 253 256 264 272 279 281 282 283 286 296 307 314 316 315 316 315 316 321 324 325 324 324 323 322 322 323 322 322 324 325 322 319 317 314 308 302 298 297 296 295 293 291 290 288 286 284 282 280 277 275 273 270 267 266
82 78 35 7 77 124 157 91 81 133 145 176 235 294 270 250 206 200 215 201 180 185 192 197 199 198 199 200 201 204 206 206 203 200 198 199 204 211 219 227 223 222 237 246 254 264 271 276 279 280 280 285 296 307 314 315 313 314 314 316 320 321 322 323 324 323 322 321 320 320 320 321 322 320 318 318 316 311 307 305 304 305 305 303 300 298 296 294 291 286 282 279 276 274 272 270 267
148 162 185 163 130 127 125 338 314 88 125 166 166 226 267 259 205 211 218 189 187 195 192 195 202 200 201 202 202 205 206 204 201 199 197 199 204 209 217 220 218 222 234 244 255 266 272 275 278 279 279 286 299 310 316 315 313 313 314 315 317 318 320 323 326 327 327 324 320 319 319 319 321 320 315 313 312 309 307 307 309 311 313 314 312 310 308 305 300 293 285 279 275 273 271 269 267